| time (UTC) | temp F | wind direction | speed MPH | gust MPH | rain 1hr in | rain 24hr in | rain mn in | humidity % | barometer mb |
| 20260507194552 | 82 | 273 | 2.0 | 5.0 | 0.00 | 0.00 | 0.00 | 63 | 1012.9 |
| 20260507193015 | 82 | 305 | 5.0 | 9.0 | 0.00 | 0.00 | 0.00 | 61 | 1013.4 |
| 20260507191601 | 82 | 242 | 4.0 | 12.0 | 0.00 | 0.00 | 0.00 | 60 | 1013.2 |
| 20260507190022 | 83 | 260 | 4.0 | 10.0 | 0.00 | 0.00 | 0.00 | 59 | 1013.2 |
| 20260507184602 | 84 | 262 | 5.0 | 14.0 | 0.00 | 0.00 | 0.00 | 56 | 1013.5 |
| 20260507183043 | 84 | 306 | 10.0 | 16.0 | 0.00 | 0.00 | 0.00 | 56 | 1014.5 |
| 20260507181611 | 84 | 288 | 5.0 | 12.0 | 0.00 | 0.00 | 0.00 | 59 | 1014.8 |
| 20260507180037 | 83 | 229 | 7.0 | 15.0 | 0.00 | 0.00 | 0.00 | 58 | 1015.0 |
| 20260507174610 | 84 | 264 | 9.0 | 13.0 | 0.00 | 0.00 | 0.00 | 57 | 1015.1 |
| 20260507173030 | 83 | 296 | 11.0 | 16.0 | 0.00 | 0.00 | 0.00 | 60 | 1015.3 |
| 20260507171608 | 81 | 311 | 5.0 | 13.0 | 0.00 | 0.00 | 0.00 | 63 | 1015.3 |
| 20260507170046 | 80 | 300 | 8.0 | 14.0 | 0.00 | 0.00 | 0.00 | 65 | 1015.5 |
| 20260507164611 | 82 | 259 | 3.0 | 11.0 | 0.00 | 0.00 | 0.00 | 63 | 1015.2 |
| 20260507163045 | 82 | 309 | 6.0 | 12.0 | 0.00 | 0.00 | 0.00 | 61 | 1015.0 |
| 20260507161508 | 82 | 269 | 6.0 | 12.0 | 0.00 | 0.00 | 0.00 | 62 | 1015.2 |
| 20260507160044 | 83 | 355 | 6.0 | 17.0 | 0.00 | 0.00 | 0.00 | 60 | 1015.5 |
| 20260507154510 | 83 | 312 | 8.0 | 16.0 | 0.00 | 0.00 | 0.00 | 59 | 1015.6 |
| 20260507153047 | 83 | 302 | 5.0 | 12.0 | 0.00 | 0.00 | 0.00 | 59 | 1015.7 |
| 20260507151511 | 81 | 281 | 8.0 | 13.0 | 0.00 | 0.00 | 0.00 | 60 | 1015.7 |
| 20260507150050 | 81 | 288 | 8.0 | 13.0 | 0.00 | 0.00 | 0.00 | 60 | 1015.3 |
| 20260507144512 | 80 | 290 | 5.0 | 10.0 | 0.00 | 0.00 | 0.00 | 60 | 1015.1 |
| 20260507143059 | 81 | 263 | 6.0 | 12.0 | 0.00 | 0.00 | 0.00 | 58 | 1014.6 |
| 20260507141513 | 79 | 292 | 5.0 | 11.0 | 0.00 | 0.00 | 0.00 | 65 | 1014.3 |
| 20260507140046 | 78 | 259 | 4.0 | 8.0 | 0.00 | 0.00 | 0.00 | 68 | 1014.5 |
| 20260507134509 | 76 | 285 | 3.0 | 10.0 | 0.00 | 0.00 | 0.00 | 73 | 1014.5 |
| 20260507133045 | 74 | 273 | 1.0 | 4.0 | 0.00 | 0.00 | 0.00 | 78 | 1014.5 |
| 20260507131502 | 72 | 269 | 2.0 | 4.0 | 0.00 | 0.00 | 0.00 | 85 | 1014.7 |
| 20260507130058 | 70 | 19 | 0.0 | 0.0 | 0.00 | 0.00 | 0.00 | 91 | 1014.8 |
| 20260507124505 | 68 | 188 | 0.0 | 0.0 | 0.00 | 0.00 | 0.00 | 93 | 1014.6 |
| 20260507123050 | 68 | 186 | 0.0 | 2.0 | 0.00 | 0.00 | 0.00 | 93 | 1014.7 |
| 20260507121518 | 67 | 186 | 0.0 | 2.0 | 0.00 | 0.00 | 0.00 | 94 | 1014.8 |
| 20260507120059 | 66 | 190 | 0.0 | 2.0 | 0.00 | 0.00 | 0.00 | 94 | 1014.6 |
| 20260507114526 | 65 | 191 | 0.0 | 0.0 | 0.00 | 0.00 | 0.00 | 94 | 1014.4 |
| 20260507113105 | 65 | 191 | 0.0 | 0.0 | 0.00 | 0.00 | 0.00 | 94 | 1014.1 |
| 20260507111533 | 65 | 191 | 0.0 | 2.0 | 0.00 | 0.00 | 0.00 | 93 | 1014.1 |
| 20260507110107 | 64 | 191 | 0.0 | 1.0 | 0.00 | 0.00 | 0.00 | 93 | 1014.0 |
| 20260507104543 | 64 | 191 | 1.0 | 2.0 | 0.00 | 0.00 | 0.00 | 93 | 1013.9 |
| 20260507103130 | 65 | 190 | 0.0 | 0.0 | 0.00 | 0.00 | 0.00 | 92 | 1013.6 |
| 20260507101529 | 65 | 190 | 0.0 | 1.0 | 0.00 | 0.00 | 0.00 | 92 | 1013.7 |
| 20260507100111 | 66 | 249 | 0.0 | 2.0 | 0.00 | 0.00 | 0.00 | 92 | 1013.7 |
| 20260507094537 | 67 | 250 | 0.0 | 2.0 | 0.00 | 0.00 | 0.00 | 90 | 1013.7 |
| 20260507093108 | 67 | 249 | 0.0 | 2.0 | 0.00 | 0.00 | 0.00 | 90 | 1013.7 |
| 20260507091544 | 67 | 255 | 0.0 | 3.0 | 0.00 | 0.00 | 0.00 | 89 | 1013.4 |
| 20260507090011 | 67 | 261 | 0.0 | 3.0 | 0.00 | 0.00 | 0.00 | 88 | 1013.3 |
| 20260507084603 | 67 | 242 | 1.0 | 4.0 | 0.00 | 0.00 | 0.00 | 89 | 1013.0 |
| 20260507083018 | 67 | 193 | 0.0 | 2.0 | 0.00 | 0.00 | 0.00 | 87 | 1012.6 |
| 20260507081550 | 67 | 243 | 0.0 | 2.0 | 0.00 | 0.00 | 0.00 | 88 | 1012.8 |
| 20260507080024 | 67 | 272 | 0.0 | 4.0 | 0.00 | 0.00 | 0.00 | 89 | 1012.7 |
| 20260507074610 | 67 | 275 | 0.0 | 2.0 | 0.00 | 0.00 | 0.00 | 90 | 1012.8 |
| 20260507073029 | 66 | 150 | 0.0 | 2.0 | 0.00 | 0.00 | 0.00 | 90 | 1013.2 |
| 20260507071613 | 66 | 150 | 0.0 | 2.0 | 0.00 | 0.00 | 0.00 | 88 | 1013.2 |
| 20260507070029 | 67 | 150 | 0.0 | 0.0 | 0.00 | 0.00 | 0.00 | 87 | 1013.5 |
| 20260507064603 | 67 | 150 | 0.0 | 2.0 | 0.00 | 0.00 | 0.00 | 87 | 1013.5 |
| 20260507063020 | 67 | 150 | 0.0 | 2.0 | 0.00 | 0.00 | 0.00 | 86 | 1013.7 |
| 20260507061602 | 67 | 150 | 0.0 | 2.0 | 0.00 | 0.00 | 0.00 | 86 | 1013.8 |
| 20260507060022 | 67 | 150 | 1.0 | 2.0 | 0.00 | 0.00 | 0.00 | 85 | 1014.0 |
| 20260507054615 | 68 | 150 | 0.0 | 0.0 | 0.00 | 0.00 | 0.00 | 84 | 1014.1 |
| 20260507053025 | 68 | 150 | 0.0 | 0.0 | 0.00 | 0.00 | 0.00 | 83 | 1014.2 |
| 20260507051602 | 69 | 150 | 0.0 | 2.0 | 0.00 | 0.00 | 0.00 | 83 | 1014.4 |
| 20260507050042 | 69 | 150 | 0.0 | 2.0 | 0.00 | 0.00 | 0.00 | 81 | 1014.6 |
| 20260507044610 | 71 | 150 | 0.0 | 2.0 | 0.00 | 0.00 | 0.00 | 79 | 1014.6 |
| 20260507043040 | 71 | 150 | 0.0 | 2.0 | 0.00 | 0.00 | 0.00 | 80 | 1014.5 |
| 20260507041511 | 71 | 150 | 0.0 | 3.0 | 0.00 | 0.00 | 0.00 | 79 | 1014.5 |
| 20260507040042 | 71 | 151 | 0.0 | 3.0 | 0.00 | 0.00 | 0.00 | 79 | 1014.8 |
| 20260507034508 | 71 | 153 | 1.0 | 3.0 | 0.00 | 0.00 | 0.00 | 78 | 1014.8 |
| 20260507033053 | 71 | 153 | 0.0 | 1.0 | 0.00 | 0.00 | 0.00 | 77 | 1014.7 |
| 20260507031516 | 71 | 153 | 0.0 | 2.0 | 0.00 | 0.00 | 0.00 | 78 | 1014.5 |
| 20260507030051 | 72 | 170 | 2.0 | 4.0 | 0.00 | 0.00 | 0.00 | 77 | 1014.6 |
| 20260507024521 | 73 | 255 | 0.0 | 2.0 | 0.00 | 0.00 | 0.00 | 74 | 1014.4 |
| 20260507023056 | 74 | 262 | 0.0 | 2.0 | 0.00 | 0.00 | 0.00 | 72 | 1014.2 |
| 20260507021534 | 75 | 263 | 1.0 | 3.0 | 0.00 | 0.00 | 0.00 | 70 | 1014.2 |
| 20260507020004 | 75 | 271 | 1.0 | 2.0 | 0.00 | 0.00 | 0.00 | 69 | 1014.5 |
| 20260507014552 | 76 | 276 | 1.0 | 2.0 | 0.00 | 0.00 | 0.00 | 67 | 1014.3 |
| 20260507013009 | 77 | 267 | 1.0 | 4.0 | 0.00 | 0.00 | 0.00 | 66 | 1014.1 |
| 20260507011543 | 78 | 279 | 1.0 | 4.0 | 0.00 | 0.00 | 0.00 | 64 | 1014.3 |
| 20260507010018 | 79 | 288 | 2.0 | 5.0 | 0.00 | 0.00 | 0.00 | 62 | 1014.5 |
| 20260507004548 | 80 | 285 | 2.0 | 6.0 | 0.00 | 0.00 | 0.00 | 60 | 1014.4 |
| 20260507003019 | 81 | 287 | 4.0 | 8.0 | 0.00 | 0.00 | 0.00 | 58 | 1014.4 |
| 20260507001607 | 82 | 285 | 6.0 | 10.0 | 0.00 | 0.00 | 0.00 | 57 | 1014.1 |
| 20260507000032 | 83 | 317 | 4.0 | 6.0 | 0.00 | 0.00 | 0.00 | 56 | 1014.0 |
| 20260506234627 | 84 | 315 | 3.0 | 9.0 | 0.00 | 0.00 | 0.00 | 55 | 1013.5 |
| 20260506233024 | 85 | 320 | 5.0 | 11.0 | 0.00 | 0.00 | 0.00 | 53 | 1013.6 |
| 20260506231559 | 87 | 283 | 7.0 | 14.0 | 0.00 | 0.00 | 0.00 | 51 | 1013.5 |
| 20260506230028 | 88 | 263 | 5.0 | 12.0 | 0.00 | 0.00 | 0.00 | 48 | 1013.2 |
| 20260506224555 | 89 | 252 | 5.0 | 11.0 | 0.00 | 0.00 | 0.00 | 46 | 1013.3 |
| 20260506223011 | 90 | 284 | 2.0 | 9.0 | 0.00 | 0.00 | 0.00 | 46 | 1013.3 |
| 20260506221559 | 90 | 288 | 5.0 | 14.0 | 0.00 | 0.00 | 0.00 | 45 | 1013.4 |
| 20260506220017 | 90 | 279 | 2.0 | 8.0 | 0.00 | 0.00 | 0.00 | 45 | 1013.4 |
| 20260506214600 | 90 | 267 | 7.0 | 12.0 | 0.00 | 0.00 | 0.00 | 44 | 1013.2 |
| 20260506213019 | 91 | 275 | 5.0 | 12.0 | 0.00 | 0.00 | 0.00 | 45 | 1013.3 |
| 20260506211555 | 93 | 320 | 5.0 | 10.0 | 0.00 | 0.00 | 0.00 | 42 | 1013.3 |
| 20260506210030 | 92 | 286 | 7.0 | 13.0 | 0.00 | 0.00 | 0.00 | 43 | 1013.4 |
| 20260506204548 | 92 | 196 | 3.0 | 15.0 | 0.00 | 0.00 | 0.00 | 43 | 1013.6 |